Content
SEND FEEDBACK

Daily
Averages
Monthly
Summary
United States of America

TULSA - AIRPORT, OKLAHOMA


Home > North America > United States > Oklahoma
Elevation: 680 feet     Latitude: 36 12N     Longitude: 095 54W

WEATHER
 
SELECT A DAY
Number of Records: 195,655;   Date Range: 1/1/95 - 10/20/14
 
SHARE

PRINT THIS DATA

[ ← Previous Day ]
WEATHER ALMANAC - JANUARY 30, 2013
[ Next Day → ]
[ °C ]   °F
Weather ElementAverageHighLow
Temperature37 °F41 °F (12:46 am)28 °F (11:53 pm)
Dewpoint28.1 °F37.4 °F (12:46 am)21.9 °F (4:53 pm)
Humidity71 %87 % (12:46 am)53 % (2:53 pm)
Barometer29.85 in30.09 in (11:53 pm)29.60 in (1:53 am)
Wind Speed15 mph27.6 mph (9:07 am)
Wind Gust38 mph (9:07 am)
Weather ElementAverage
Visibility9.7 mi
Wind DirectionW (273.5 °)

Weather ElementTotal
Precipitation---
Heating Degree Days30.5 (Base 65)
Averaged from 37 records on January 30, 2013
WEATHER CONDITIONS BREAKOUT
WIND DIRECTION BREAKOUT
WEATHER BY HOUR - JANUARY 30, 2013
[ °C ]   °F
Local TimeTemperatureDewpointHumidityBarometerVisibilityWind DirectionWind SpeedGust SpeedPrecipitationEventsConditions
12:46 AM41.0 °F37.4 °F87 %29.62 in8.0 miWNW (300°)8.1 mphOvercast
12:53 AM41.0 °F37.0 °F86 %29.62 in8.0 miWNW (290°)9.2 mphOvercast
1:53 AM39.9 °F35.1 °F83 %29.60 in9.0 miNNW (330°)12.7 mph0.00 inRainLight Rain
2:53 AM39.9 °F35.1 °F83 %29.63 in10.0 miWNW (300°)11.5 mph0.00 inOvercast
3:28 AM39.2 °F35.6 °F87 %29.64 in10.0 miNW (310°)18.4 mphOvercast
3:38 AM39.2 °F35.6 °F87 %29.64 in10.0 miNW (320°)15.0 mph23.0 mphOvercast
3:53 AM39.0 °F32.0 °F76 %29.64 in10.0 miNW (320°)16.1 mphOvercast
4:00 AM37.4 °F30.2 °F75 %29.64 in10.0 miNW (310°)20.7 mph25.3 mphMostly Cloudy
4:53 AM37.9 °F32.0 °F79 %29.66 in10.0 miWNW (300°)12.7 mph24.2 mphOvercast
5:08 AM37.4 °F33.8 °F87 %29.67 in10.0 miWNW (290°)17.3 mphOvercast
5:53 AM37.9 °F30.9 °F76 %29.71 in10.0 miNW (310°)17.3 mphOvercast
6:29 AM37.4 °F30.2 °F75 %29.73 in10.0 miNW (310°)17.3 mph28.8 mphOvercast
6:53 AM37.0 °F28.9 °F73 %29.75 in10.0 miNW (310°)17.3 mph24.2 mphOvercast
7:53 AM37.0 °F28.9 °F73 %29.79 in10.0 miNW (310°)21.9 mph26.5 mphOvercast
8:11 AM37.4 °F28.4 °F70 %29.81 in10.0 miNNW (330°)21.9 mph28.8 mphOvercast
8:53 AM37.0 °F28.0 °F70 %29.84 in10.0 miNNW (330°)16.1 mph26.5 mphOvercast
9:07 AM37.4 °F28.4 °F70 %29.84 in10.0 miNNW (330°)27.6 mph38.0 mphOvercast
9:44 AM37.4 °F26.6 °F65 %29.86 in10.0 miNW (320°)21.9 mph31.1 mphOvercast
9:53 AM36.0 °F27.0 °F70 %29.88 in10.0 miNNW (330°)24.2 mph31.1 mphOvercast
10:36 AM37.4 °F26.6 °F65 %29.90 in10.0 miNW (320°)23.0 mph34.5 mphMostly Cloudy
10:53 AM37.9 °F28.0 °F68 %29.92 in9.0 miNW (320°)18.4 mph31.1 mphMostly Cloudy
11:03 AM37.4 °F26.6 °F65 %29.91 in10.0 miNW (310°)23.0 mph27.6 mphMostly Cloudy
11:42 AM37.4 °F26.6 °F65 %29.93 in10.0 miNNW (330°)20.7 mph27.6 mphOvercast
11:53 AM37.0 °F27.0 °F67 %29.94 in10.0 miNW (310°)19.6 mph27.6 mphOvercast
12:30 PM37.4 °F26.6 °F65 %29.95 in9.0 miNW (320°)19.6 mph27.6 mphOvercast
12:53 PM37.0 °F26.1 °F65 %29.95 in9.0 miWNW (300°)16.1 mph
1:53 PM39.0 °F26.1 °F60 %29.95 in10.0 miNW (310°)17.3 mph25.3 mphMostly Cloudy
2:53 PM39.9 °F24.1 °F53 %29.97 in10.0 miNW (310°)19.6 mph29.9 mphMostly Cloudy
3:53 PM39.0 °F23.0 °F53 %29.99 in10.0 miNW (310°)17.3 mphScattered Clouds
4:53 PM37.0 °F21.9 °F54 %30.01 in10.0 miWNW (300°)17.3 mph25.3 mphPartly Cloudy
5:53 PM35.1 °F23.0 °F61 %30.02 in10.0 miWNW (300°)9.2 mphPartly Cloudy
6:53 PM34.0 °F23.0 °F64 %30.04 in10.0 miCalmClear
7:53 PM34.0 °F23.0 °F64 %30.06 in10.0 miCalmClear
8:53 PM30.9 °F21.9 °F69 %30.07 in10.0 miCalmClear
9:53 PM32.0 °F21.9 °F66 %30.08 in10.0 miWSW (240°)3.5 mphClear
10:53 PM30.9 °F23.0 °F72 %30.07 in9.0 miCalmClear
11:53 PM28.0 °F21.9 °F78 %30.09 in8.0 miSouth (190°)3.5 mphClear
Hourly data recorded from KTUL, located miles away from Tulsa - Airport, Oklahoma







STORIES FROM OUR PARTNERS